Tiempo cada hora Cegielnia

Hoy, 19 Abril, Lunes

Tiempo Temperatura Precipitaciones Viento Presión Humedad
00:00 +9°C° 0.1 mm 2 mps 749 mmHg 92%
01:00 +8°C° 0.1 mm 2 mps 749 mmHg 93%
02:00 +8°C° 0 mm 2 mps 748 mmHg 94%
03:00 +8°C° 0 mm 2 mps 748 mmHg 94%
04:00 +8°C° 0 mm 2 mps 748 mmHg 95%
05:00 +8°C° 0 mm 2 mps 748 mmHg 95%
06:00 +8°C° 0 mm 3 mps 748 mmHg 90%
07:00 +9°C° 0 mm 3 mps 748 mmHg 86%
08:00 +8°C° 0 mm 4 mps 749 mmHg 80%
09:00 +11°C° 0 mm 4 mps 749 mmHg 72%
10:00 +12°C° 0 mm 5 mps 748 mmHg 64%
11:00 +13°C° 0 mm 5 mps 748 mmHg 55%
12:00 +13°C° 0 mm 5 mps 748 mmHg 53%
13:00 +14°C° 0 mm 5 mps 748 mmHg 51%
14:00 +14°C° 0 mm 4 mps 748 mmHg 49%
15:00 +14°C° 0 mm 4 mps 748 mmHg 51%
16:00 +13°C° 0 mm 4 mps 748 mmHg 53%
17:00 +13°C° 0 mm 4 mps 747 mmHg 55%
18:00 +12°C° 0 mm 4 mps 748 mmHg 59%
19:00 +11°C° 0 mm 4 mps 748 mmHg 63%
20:00 +10°C° 0 mm 4 mps 748 mmHg 68%
21:00 +9°C° 0 mm 3 mps 748 mmHg 71%
22:00 +8°C° 0 mm 3 mps 748 mmHg 75%
23:00 +7°C° 0 mm 3 mps 748 mmHg 78%

Mañana, 20 Abril, Martes

Tiempo Temperatura Precipitaciones Viento Presión Humedad
00:00 +7°C° 0 mm 3 mps 747 mmHg 78%
01:00 +6°C° 0 mm 2 mps 747 mmHg 78%
02:00 +6°C° 0 mm 2 mps 747 mmHg 78%
03:00 +6°C° 0 mm 2 mps 747 mmHg 78%
04:00 +6°C° 0 mm 2 mps 747 mmHg 78%
05:00 +6°C° 0 mm 2 mps 747 mmHg 78%
06:00 +7°C° 0 mm 3 mps 747 mmHg 76%
07:00 +8°C° 0 mm 3 mps 747 mmHg 75%
08:00 +8°C° 0 mm 3 mps 747 mmHg 74%
09:00 +9°C° 0.1 mm 3 mps 747 mmHg 69%
10:00 +11°C° 0.1 mm 3 mps 747 mmHg 65%
11:00 +12°C° 0.1 mm 3 mps 746 mmHg 60%
12:00 +13°C° 0.2 mm 3 mps 746 mmHg 57%
13:00 +13°C° 0.2 mm 3 mps 746 mmHg 54%
14:00 +14°C° 0.2 mm 3 mps 745 mmHg 52%
15:00 +13°C° 0.2 mm 3 mps 745 mmHg 52%
16:00 +13°C° 0.2 mm 3 mps 745 mmHg 53%
17:00 +14°C° 0.2 mm 2 mps 745 mmHg 54%
18:00 +13°C° 0.2 mm 2 mps 745 mmHg 60%
19:00 +11°C° 0.2 mm 1 mps 745 mmHg 67%
20:00 +10°C° 0.2 mm 1 mps 745 mmHg 73%
21:00 +10°C° 0.3 mm 1 mps 745 mmHg 76%
22:00 +9°C° 0.3 mm 1 mps 745 mmHg 79%
23:00 +9°C° 0.3 mm 1 mps 744 mmHg 82%

Pasado mañana, 21 Abril, Miércoles

Tiempo Temperatura Precipitaciones Viento Presión Humedad
00:00 +9°C° 0.1 mm 1 mps 744 mmHg 84%
01:00 +7°C° 0.1 mm 2 mps 744 mmHg 86%
02:00 +7°C° 0.1 mm 2 mps 744 mmHg 88%
03:00 +6°C° 0 mm 2 mps 744 mmHg 89%
04:00 +6°C° 0 mm 2 mps 744 mmHg 89%
05:00 +5°C° 0 mm 2 mps 744 mmHg 89%
06:00 +7°C° 0 mm 3 mps 744 mmHg 84%
07:00 +8°C° 0 mm 3 mps 744 mmHg 79%
08:00 +9°C° 0 mm 3 mps 744 mmHg 74%
09:00 +10°C° 0.2 mm 4 mps 744 mmHg 70%
10:00 +12°C° 0.2 mm 4 mps 744 mmHg 65%
11:00 +13°C° 0.2 mm 5 mps 744 mmHg 60%
12:00 +13°C° 0.3 mm 5 mps 744 mmHg 63%
13:00 +13°C° 0.3 mm 5 mps 744 mmHg 65%
14:00 +12°C° 0.3 mm 5 mps 743 mmHg 67%
15:00 +13°C° 0.3 mm 5 mps 743 mmHg 66%
16:00 +13°C° 0.3 mm 5 mps 743 mmHg 65%
17:00 +13°C° 0.3 mm 5 mps 743 mmHg 65%
18:00 +12°C° 0.1 mm 4 mps 743 mmHg 69%
19:00 +11°C° 0.1 mm 3 mps 743 mmHg 73%
20:00 +10°C° 0.1 mm 3 mps 743 mmHg 77%
21:00 +9°C° 0 mm 3 mps 743 mmHg 79%
22:00 +8°C° 0 mm 3 mps 743 mmHg 81%
23:00 +7°C° 0 mm 3 mps 743 mmHg 82%

22 Abril, Jueves

Tiempo Temperatura Precipitaciones Viento Presión Humedad
00:00 +7°C° 0 mm 3 mps 743 mmHg 82%
01:00 +7°C° 0 mm 3 mps 743 mmHg 81%
02:00 +7°C° 0 mm 3 mps 743 mmHg 81%
03:00 +7°C° 0 mm 3 mps 743 mmHg 80%
04:00 +7°C° 0 mm 3 mps 743 mmHg 80%
05:00 +5°C° 0 mm 3 mps 743 mmHg 79%
06:00 +6°C° 0 mm 4 mps 744 mmHg 79%
07:00 +6°C° 0 mm 4 mps 744 mmHg 79%
08:00 +7°C° 0 mm 5 mps 745 mmHg 79%
09:00 +7°C° 0 mm 4 mps 745 mmHg 79%
10:00 +7°C° 0 mm 4 mps 745 mmHg 78%
11:00 +8°C° 0 mm 3 mps 745 mmHg 77%
12:00 +8°C° 0.1 mm 3 mps 745 mmHg 76%
13:00 +7°C° 0.1 mm 4 mps 745 mmHg 74%
14:00 +7°C° 0.1 mm 4 mps 745 mmHg 73%
15:00 +8°C° 0 mm 4 mps 745 mmHg 67%
16:00 +8°C° 0 mm 4 mps 745 mmHg 61%
17:00 +8°C° 0 mm 4 mps 745 mmHg 55%
18:00 +8°C° 0 mm 3 mps 745 mmHg 57%
19:00 +7°C° 0 mm 3 mps 746 mmHg 58%
20:00 +6°C° 0 mm 2 mps 746 mmHg 60%
21:00 +6°C° 0 mm 2 mps 746 mmHg 60%
22:00 +4°C° 0 mm 3 mps 746 mmHg 61%
23:00 +4°C° 0 mm 3 mps 746 mmHg 62%

23 Abril, Viernes

Tiempo Temperatura Precipitaciones Viento Presión Humedad
00:00 +3°C° 0 mm 3 mps 746 mmHg 64%
01:00 +3°C° 0 mm 3 mps 746 mmHg 67%
02:00 +2°C° 0 mm 3 mps 746 mmHg 69%
03:00 +2°C° 0 mm 3 mps 746 mmHg 72%
04:00 +2°C° 0 mm 3 mps 746 mmHg 75%
05:00 +1°C° 0 mm 3 mps 746 mmHg 78%
06:00 +1°C° 0 mm 4 mps 746 mmHg 76%
07:00 +1°C° 0 mm 5 mps 747 mmHg 75%
08:00 +2°C° 0 mm 6 mps 747 mmHg 74%
09:00 +2°C° 0 mm 6 mps 748 mmHg 71%
10:00 +3°C° 0 mm 6 mps 748 mmHg 68%
11:00 +3°C° 0 mm 7 mps 748 mmHg 66%
12:00 +4°C° 0.1 mm 7 mps 748 mmHg 65%
13:00 +4°C° 0.1 mm 7 mps 748 mmHg 65%
14:00 +5°C° 0.1 mm 7 mps 749 mmHg 65%
15:00 +5°C° 0.2 mm 7 mps 749 mmHg 67%
16:00 +5°C° 0.2 mm 7 mps 749 mmHg 68%
17:00 +5°C° 0.2 mm 7 mps 749 mmHg 70%
18:00 +4°C° 0.2 mm 6 mps 749 mmHg 76%
19:00 +3°C° 0.2 mm 5 mps 750 mmHg 82%
20:00 +3°C° 0.2 mm 4 mps 750 mmHg 89%
21:00 +3°C° 0.1 mm 4 mps 750 mmHg 90%
22:00 +2°C° 0.1 mm 3 mps 751 mmHg 90%
23:00 +2°C° 0.1 mm 3 mps 751 mmHg 91%

24 Abril, Sábado

Tiempo Temperatura Precipitaciones Viento Presión Humedad
00:00 +1°C° 0 mm 3 mps 751 mmHg 91%
01:00 0°C° 0 mm 3 mps 751 mmHg 91%
02:00 -1°C° 0 mm 3 mps 751 mmHg 91%
03:00 -1°C° 0 mm 3 mps 751 mmHg 90%
04:00 -1°C° 0 mm 3 mps 751 mmHg 90%
05:00 -2°C° 0 mm 3 mps 751 mmHg 89%
06:00 0°C° 0 mm 3 mps 751 mmHg 81%
07:00 0°C° 0 mm 4 mps 751 mmHg 74%
08:00 +3°C° 0 mm 4 mps 751 mmHg 67%
09:00 +3°C° 0 mm 5 mps 750 mmHg 59%
10:00 +5°C° 0 mm 6 mps 750 mmHg 51%
11:00 +6°C° 0 mm 7 mps 749 mmHg 43%
12:00 +6°C° 0.1 mm 7 mps 749 mmHg 50%
13:00 +6°C° 0.1 mm 7 mps 748 mmHg 58%
14:00 +6°C° 0.1 mm 8 mps 748 mmHg 65%
15:00 +6°C° 0.2 mm 7 mps 748 mmHg 66%
16:00 +6°C° 0.2 mm 7 mps 748 mmHg 68%
17:00 +6°C° 0.2 mm 7 mps 748 mmHg 69%
18:00 +5°C° 0.1 mm 7 mps 748 mmHg 73%
19:00 +4°C° 0.1 mm 6 mps 748 mmHg 78%
20:00 +3°C° 0.1 mm 5 mps 748 mmHg 83%
21:00 +2°C° 0.2 mm 5 mps 749 mmHg 84%
22:00 +2°C° 0.2 mm 5 mps 749 mmHg 85%
23:00 +1°C° 0.2 mm 5 mps 750 mmHg 86%
Mostrar más

Necesitamos Su Consentimiento

Meteoprog y nuestros Proveedores de Servicios pueden almacenar y acceder a sus datos personales como cookies, identificadores de dispositivo u otras tecnologías similares de su dispositivo y procesar dichos datos para personalizar contenido y anuncios, además de ofrecer funciones de redes sociales y analizar el tráfico.

  • Almacenar y/o acceder a información en su dispositivo

    Se puede almacenar o acceder a cookies, identificadores de dispositivo u otra información de su dispositivo para los fines anteriormente indicados.

  • Anuncios y contenido personalizados, medición de anuncios y contenido, percepciones del público, y desarrollo de productos

    Los anuncios y el contenido pueden personalizarse en base a su perfil. Se pueden añadir más datos para personalizar mejor los anuncios y contenidos. Se puede medir el rendimiento de los anuncios y contenidos. Se puede obtener la percepción sobre el público que ha visto los anuncios y contenidos. Dichos datos pueden usarse para desarrollar o mejorar la experiencia del usuario, sistemas y software.

Al hacer clic en ‘Estoy De Acuerdo’ usted permitirá el uso de las cookies, identificadores de dispositivo, balizas web u otras tecnologías similares indicadas. Su configuración puede cambiarse desde el navegador de su dispositivo.

Para ciertos fines, los intereses legítimos pueden ser considerados por encima del consentimiento. Puede leer más sobre ello en nuestra Política de Privacidad y Cookies.